date,City,No. Stations,Air Quality,Index Value,Prominent Pollutant
2020-11-14,Chamarajanagar,1.0,Good,42,PM10
2020-11-15,Chamarajanagar,1.0,Good,46,NO2
2020-11-17,Chamarajanagar,1.0,Good,40,PM10
2020-11-18,Chamarajanagar,1.0,Satisfactory,62,PM2.5
2020-11-19,Chamarajanagar,1.0,Good,21,CO
2020-11-20,Chamarajanagar,1.0,Satisfactory,60,PM2.5
2020-11-25,Chamarajanagar,1.0,Moderate,106,CO
2020-11-26,Chamarajanagar,1.0,Moderate,106,CO
2020-12-19,Chamarajanagar,1.0,Good,47,PM10
2020-12-20,Chamarajanagar,1.0,Satisfactory,53,PM10
2020-12-21,Chamarajanagar,1.0,Good,35,PM10
2020-12-22,Chamarajanagar,1.0,Good,45,PM10
2020-12-23,Chamarajanagar,1.0,Good,40,PM10
2020-12-26,Chamarajanagar,1.0,Good,47,PM10
2020-12-27,Chamarajanagar,1.0,Good,38,PM10
2020-12-28,Chamarajanagar,1.0,Good,36,PM10
2020-12-29,Chamarajanagar,1.0,Satisfactory,52,PM10
2020-12-30,Chamarajanagar,1.0,Satisfactory,62,PM10
2021-01-07,Chamarajanagar,1.0,Satisfactory,55,PM10
2021-01-08,Chamarajanagar,1.0,Satisfactory,56,PM10
2021-01-09,Chamarajanagar,1.0,Good,47,PM10
2021-01-10,Chamarajanagar,1.0,Good,44,PM10
2021-01-20,Chamarajanagar,1.0,Satisfactory,59,PM10
2021-01-30,Chamarajanagar,1.0,Satisfactory,63,PM10
2021-01-31,Chamarajanagar,1.0,Satisfactory,63,PM10
2021-02-01,Chamarajanagar,1.0,Satisfactory,56,PM10
2021-02-03,Chamarajanagar,1.0,Satisfactory,96,PM2.5
2021-02-04,Chamarajanagar,1.0,Satisfactory,63,PM10
2021-02-05,Chamarajanagar,1.0,Satisfactory,79,PM2.5
2021-02-06,Chamarajanagar,1.0,Satisfactory,78,PM2.5
2021-02-07,Chamarajanagar,1.0,Satisfactory,98,PM2.5
2021-02-08,Chamarajanagar,1.0,Satisfactory,96,PM2.5
2021-02-09,Chamarajanagar,1.0,Moderate,138,PM2.5
2021-02-10,Chamarajanagar,1.0,Moderate,102,PM2.5
2021-02-11,Chamarajanagar,1.0,Satisfactory,89,PM10
2021-02-12,Chamarajanagar,1.0,Satisfactory,89,PM10
2021-02-13,Chamarajanagar,1.0,Satisfactory,90,PM10
2021-02-14,Chamarajanagar,1.0,Satisfactory,90,PM10
2021-02-15,Chamarajanagar,1.0,Satisfactory,89,PM10
2021-02-16,Chamarajanagar,1.0,Moderate,108,NO2
2021-02-17,Chamarajanagar,1.0,Satisfactory,89,PM10
2021-02-19,Chamarajanagar,1.0,Satisfactory,91,O3
2021-02-22,Chamarajanagar,1.0,Satisfactory,70,PM10
2021-02-23,Chamarajanagar,1.0,Satisfactory,70,PM10
2021-02-26,Chamarajanagar,1.0,Satisfactory,85,PM2.5
2021-03-01,Chamarajanagar,1.0,Satisfactory,77,PM10
2021-03-05,Chamarajanagar,1.0,Satisfactory,83,PM10
2021-03-06,Chamarajanagar,1.0,Moderate,114,PM2.5
2021-03-07,Chamarajanagar,1.0,Satisfactory,90,PM10
2021-03-08,Chamarajanagar,1.0,Satisfactory,91,PM10
2021-03-09,Chamarajanagar,1.0,Satisfactory,90,PM10
2021-03-11,Chamarajanagar,1.0,Satisfactory,70,PM10
2021-03-12,Chamarajanagar,1.0,Satisfactory,70,PM10
2021-03-13,Chamarajanagar,1.0,Satisfactory,70,PM10
2021-03-14,Chamarajanagar,1.0,Satisfactory,69,PM10
2021-03-15,Chamarajanagar,1.0,Satisfactory,69,PM10
2021-03-16,Chamarajanagar,1.0,Satisfactory,91,PM2.5
2021-03-17,Chamarajanagar,1.0,Satisfactory,79,PM10
2021-03-26,Chamarajanagar,1.0,Good,50,PM10
2021-04-01,Chamarajanagar,1.0,Satisfactory,77,PM10
2021-04-02,Chamarajanagar,1.0,Satisfactory,76,PM10
2021-04-03,Chamarajanagar,1.0,Satisfactory,72,PM10
2021-04-04,Chamarajanagar,1.0,Satisfactory,79,PM10
2021-04-05,Chamarajanagar,1.0,Satisfactory,71,PM10
2021-04-06,Chamarajanagar,1.0,Satisfactory,94,PM2.5
2021-04-07,Chamarajanagar,1.0,Satisfactory,94,PM2.5
2021-04-08,Chamarajanagar,1.0,Satisfactory,74,PM2.5
2021-04-09,Chamarajanagar,1.0,Satisfactory,67,PM10
2021-04-10,Chamarajanagar,1.0,Satisfactory,63,PM10
2021-04-11,Chamarajanagar,1.0,Satisfactory,71,PM10
2021-04-12,Chamarajanagar,1.0,Satisfactory,70,PM10
2021-04-13,Chamarajanagar,1.0,Satisfactory,71,PM10
2021-04-15,Chamarajanagar,1.0,Satisfactory,69,PM10
2021-04-16,Chamarajanagar,1.0,Satisfactory,56,PM10
2021-04-17,Chamarajanagar,1.0,Satisfactory,51,PM10
2021-04-18,Chamarajanagar,1.0,Satisfactory,51,PM10
2021-04-19,Chamarajanagar,1.0,Moderate,169,O3
2021-04-20,Chamarajanagar,1.0,Satisfactory,62,PM10
2021-04-21,Chamarajanagar,1.0,Satisfactory,60,PM10
2021-04-22,Chamarajanagar,1.0,Satisfactory,73,PM2.5
2021-04-23,Chamarajanagar,1.0,Satisfactory,69,PM10
2021-04-24,Chamarajanagar,1.0,Satisfactory,65,PM10
2021-04-25,Chamarajanagar,1.0,Satisfactory,76,PM2.5
2021-04-26,Chamarajanagar,1.0,Satisfactory,73,PM2.5
2021-04-27,Chamarajanagar,1.0,Satisfactory,76,PM2.5
2021-04-28,Chamarajanagar,1.0,Satisfactory,75,PM2.5
2021-04-29,Chamarajanagar,1.0,Satisfactory,79,PM2.5
2021-04-30,Chamarajanagar,1.0,Good,50,PM10
2021-05-01,Chamarajanagar,1.0,Satisfactory,76,PM2.5
2021-05-02,Chamarajanagar,1.0,Satisfactory,68,PM10
2021-05-03,Chamarajanagar,1.0,Satisfactory,59,PM10
2021-05-04,Chamarajanagar,1.0,Satisfactory,59,PM10
2021-05-05,Chamarajanagar,1.0,Satisfactory,54,PM10
2021-05-06,Chamarajanagar,1.0,Satisfactory,60,PM10
2021-05-07,Chamarajanagar,1.0,Satisfactory,56,PM10
2021-05-08,Chamarajanagar,1.0,Satisfactory,54,PM10
2021-05-09,Chamarajanagar,1.0,Satisfactory,59,PM10
2021-05-10,Chamarajanagar,1.0,Satisfactory,84,NO2
2021-05-11,Chamarajanagar,1.0,Satisfactory,68,NO2
2021-05-12,Chamarajanagar,1.0,Good,48,PM10
2021-05-13,Chamarajanagar,1.0,Moderate,126,NO2
2021-05-14,Chamarajanagar,1.0,Satisfactory,51,PM10
2021-05-15,Chamarajanagar,1.0,Good,32,PM10
2021-05-16,Chamarajanagar,1.0,Good,41,PM10
2021-05-17,Chamarajanagar,1.0,Good,34,PM10
2021-05-18,Chamarajanagar,1.0,Good,47,PM10
2021-05-19,Chamarajanagar,1.0,Good,42,PM10
2021-05-20,Chamarajanagar,1.0,Good,41,O3
2021-05-21,Chamarajanagar,1.0,Good,36,PM10
2021-05-22,Chamarajanagar,1.0,Good,41,O3
2021-05-23,Chamarajanagar,1.0,Good,34,CO
2021-05-24,Chamarajanagar,1.0,Good,50,O3
2021-05-25,Chamarajanagar,1.0,Good,48,O3
2021-05-27,Chamarajanagar,1.0,Satisfactory,76,O3
2021-05-28,Chamarajanagar,1.0,Satisfactory,54,O3
2021-05-29,Chamarajanagar,1.0,Good,48,O3
2021-05-30,Chamarajanagar,1.0,Satisfactory,70,O3
2021-05-31,Chamarajanagar,1.0,Good,42,O3
2021-06-01,Chamarajanagar,1.0,Good,39,O3
2021-06-02,Chamarajanagar,1.0,Good,45,O3
2021-06-03,Chamarajanagar,1.0,Good,40,PM10
2021-06-04,Chamarajanagar,1.0,Good,50,O3
2021-06-05,Chamarajanagar,1.0,Good,36,O3
2021-06-06,Chamarajanagar,1.0,Satisfactory,56,O3
2021-06-07,Chamarajanagar,1.0,Satisfactory,54,CO
2021-06-08,Chamarajanagar,1.0,Good,43,O3
2021-06-09,Chamarajanagar,1.0,Good,41,PM10
2021-06-10,Chamarajanagar,1.0,Good,38,PM2.5
2021-06-11,Chamarajanagar,1.0,Good,42,PM10
2021-06-12,Chamarajanagar,1.0,Good,38,PM10
2021-06-13,Chamarajanagar,1.0,Good,42,PM10
2021-06-15,Chamarajanagar,1.0,Good,34,PM10
2021-06-16,Chamarajanagar,1.0,Good,40,PM10
2021-06-17,Chamarajanagar,1.0,Good,40,PM10
2021-06-19,Chamarajanagar,1.0,Good,37,PM10
2021-06-20,Chamarajanagar,1.0,Good,38,PM10
2021-06-21,Chamarajanagar,1.0,Good,44,PM10
2021-06-22,Chamarajanagar,1.0,Good,41,PM10
2021-06-23,Chamarajanagar,1.0,Good,43,PM10
2021-06-24,Chamarajanagar,1.0,Good,49,PM10
2021-06-26,Chamarajanagar,1.0,Satisfactory,54,PM10
2021-06-27,Chamarajanagar,1.0,Satisfactory,56,PM10
2021-06-28,Chamarajanagar,1.0,Good,48,PM10
2021-06-29,Chamarajanagar,1.0,Good,49,PM10
2021-06-30,Chamarajanagar,1.0,Good,49,PM10
2021-07-01,Chamarajanagar,1.0,Good,41,PM10
2021-07-02,Chamarajanagar,1.0,Good,44,PM10
2021-07-03,Chamarajanagar,1.0,Good,37,CO
2021-07-05,Chamarajanagar,1.0,Good,49,PM10
2021-07-06,Chamarajanagar,1.0,Satisfactory,54,PM10
2021-07-07,Chamarajanagar,1.0,Satisfactory,55,PM10
2021-07-08,Chamarajanagar,1.0,Satisfactory,52,PM10
2021-07-09,Chamarajanagar,1.0,Satisfactory,52,PM10
2021-07-10,Chamarajanagar,1.0,Satisfactory,51,PM10
2021-07-11,Chamarajanagar,1.0,Satisfactory,57,PM10
2021-07-12,Chamarajanagar,1.0,Good,43,PM10
2021-07-13,Chamarajanagar,1.0,Good,43,PM10
2021-07-14,Chamarajanagar,1.0,Good,38,PM10
2021-07-15,Chamarajanagar,1.0,Good,36,PM10
2021-07-16,Chamarajanagar,1.0,Good,41,PM10
2021-07-17,Chamarajanagar,1.0,Good,39,PM10
2021-07-18,Chamarajanagar,1.0,Good,34,PM10
2021-07-19,Chamarajanagar,1.0,Good,40,PM10
2021-07-20,Chamarajanagar,1.0,Good,39,PM10
2021-07-21,Chamarajanagar,1.0,Good,43,PM10
2021-07-22,Chamarajanagar,1.0,Good,39,PM10
2021-07-23,Chamarajanagar,1.0,Good,38,PM10
2021-07-24,Chamarajanagar,1.0,Good,36,PM10
2021-07-25,Chamarajanagar,1.0,Good,46,PM10
2021-07-26,Chamarajanagar,1.0,Good,42,PM10
2021-07-27,Chamarajanagar,1.0,Good,49,PM2.5
2021-07-28,Chamarajanagar,1.0,Good,39,PM10
2021-07-29,Chamarajanagar,1.0,Good,38,PM10
2021-07-30,Chamarajanagar,1.0,Good,39,PM10
2021-07-31,Chamarajanagar,1.0,Good,39,PM10
2021-08-01,Chamarajanagar,1.0,Good,36,PM10
2021-08-02,Chamarajanagar,1.0,Good,45,PM10
2021-08-03,Chamarajanagar,1.0,Good,40,PM10
2021-08-04,Chamarajanagar,1.0,Good,42,PM10
2021-08-05,Chamarajanagar,1.0,Good,46,PM10
2021-08-06,Chamarajanagar,1.0,Good,41,PM10
2021-08-07,Chamarajanagar,1.0,Good,41,PM10
2021-08-08,Chamarajanagar,1.0,Good,41,PM10
2021-08-09,Chamarajanagar,1.0,Good,41,PM10
2021-08-10,Chamarajanagar,1.0,Good,41,PM10
2021-08-11,Chamarajanagar,1.0,Good,44,PM10
2021-08-12,Chamarajanagar,1.0,Good,46,PM2.5
2021-08-13,Chamarajanagar,1.0,Good,41,PM10
2021-08-14,Chamarajanagar,1.0,Good,38,PM10
2021-08-15,Chamarajanagar,1.0,Good,40,PM10
2021-08-16,Chamarajanagar,1.0,Good,42,PM10
2021-08-17,Chamarajanagar,1.0,Good,44,PM2.5
2021-08-19,Chamarajanagar,1.0,Good,40,PM10
2021-08-20,Chamarajanagar,1.0,Good,42,PM10
2021-08-21,Chamarajanagar,1.0,Good,45,PM10
2021-08-22,Chamarajanagar,1.0,Good,39,PM10
2021-08-23,Chamarajanagar,1.0,Good,43,PM10
2021-08-24,Chamarajanagar,1.0,Good,38,PM10
2021-08-25,Chamarajanagar,1.0,Good,38,PM10
2021-08-26,Chamarajanagar,1.0,Good,38,PM10
2021-08-28,Chamarajanagar,1.0,Good,38,PM10
2021-08-29,Chamarajanagar,1.0,Good,40,PM10
2021-08-30,Chamarajanagar,1.0,Good,37,PM10
2021-08-31,Chamarajanagar,1.0,Good,40,PM10
2021-09-01,Chamarajanagar,1.0,Good,41,PM10
2021-09-02,Chamarajanagar,1.0,Good,42,PM10
2021-09-03,Chamarajanagar,1.0,Good,44,PM10
2021-09-04,Chamarajanagar,1.0,Good,39,PM2.5
2021-09-05,Chamarajanagar,1.0,Good,35,PM10
2021-09-06,Chamarajanagar,1.0,Good,39,PM10
2021-09-07,Chamarajanagar,1.0,Good,40,PM10
2021-09-08,Chamarajanagar,1.0,Good,42,PM10
2021-09-09,Chamarajanagar,1.0,Good,38,PM10
2021-09-10,Chamarajanagar,1.0,Good,37,PM10
2021-09-11,Chamarajanagar,1.0,Good,48,PM10
2021-09-12,Chamarajanagar,1.0,Good,40,PM10
2021-09-13,Chamarajanagar,1.0,Good,43,PM10
2021-09-14,Chamarajanagar,1.0,Good,40,PM10
2021-09-15,Chamarajanagar,1.0,Good,41,PM10
2021-09-16,Chamarajanagar,1.0,Good,41,PM10
2021-09-17,Chamarajanagar,1.0,Good,40,PM10
2021-09-18,Chamarajanagar,1.0,Good,42,PM2.5
2021-09-19,Chamarajanagar,1.0,Good,38,PM10
2021-09-21,Chamarajanagar,1.0,Good,43,PM2.5
2021-09-22,Chamarajanagar,1.0,Good,43,PM10
2021-09-23,Chamarajanagar,1.0,Good,41,PM10
2021-09-24,Chamarajanagar,1.0,Good,42,PM10
2021-09-25,Chamarajanagar,1.0,Good,39,PM10
2021-09-26,Chamarajanagar,1.0,Good,39,PM10
2021-09-27,Chamarajanagar,1.0,Good,42,PM10
2021-09-29,Chamarajanagar,1.0,Good,41,PM10
2021-09-30,Chamarajanagar,1.0,Good,41,PM10
2021-10-02,Chamarajanagar,1.0,Good,44,PM10
2021-10-03,Chamarajanagar,1.0,Good,44,PM10
2021-10-05,Chamarajanagar,1.0,Good,47,PM10
2021-10-06,Chamarajanagar,1.0,Good,43,PM10
2021-10-07,Chamarajanagar,1.0,Good,48,PM10
2021-10-08,Chamarajanagar,1.0,Good,41,PM10
2021-10-09,Chamarajanagar,1.0,Good,44,PM10
2021-10-10,Chamarajanagar,1.0,Satisfactory,61,NO2
2021-10-11,Chamarajanagar,1.0,Good,43,PM10
2021-10-12,Chamarajanagar,1.0,Good,38,PM10
2021-10-13,Chamarajanagar,1.0,Good,42,PM10
2021-10-14,Chamarajanagar,1.0,Good,42,PM10
2021-10-15,Chamarajanagar,1.0,Good,44,PM10
2021-10-16,Chamarajanagar,1.0,Good,43,PM10
2021-10-17,Chamarajanagar,1.0,Good,38,PM10
2021-10-18,Chamarajanagar,1.0,Good,47,PM2.5
2021-10-19,Chamarajanagar,1.0,Good,45,PM10
2021-10-20,Chamarajanagar,1.0,Good,49,PM10
2021-10-21,Chamarajanagar,1.0,Good,47,PM2.5
2021-10-22,Chamarajanagar,1.0,Good,47,PM10
2021-10-23,Chamarajanagar,1.0,Good,44,PM10
2021-10-24,Chamarajanagar,1.0,Good,42,PM10
2021-10-25,Chamarajanagar,1.0,Good,39,PM10
2021-10-26,Chamarajanagar,1.0,Good,44,PM10
2021-10-27,Chamarajanagar,1.0,Good,46,PM10
2021-10-28,Chamarajanagar,1.0,Good,44,PM10
2021-10-29,Chamarajanagar,1.0,Good,44,PM10
2021-10-30,Chamarajanagar,1.0,Good,43,PM10
2021-10-31,Chamarajanagar,1.0,Good,43,PM10
2021-11-01,Chamarajanagar,1.0,Good,46,PM10
2021-11-02,Chamarajanagar,1.0,Good,43,PM10
2021-11-03,Chamarajanagar,1.0,Good,45,PM10
2021-11-04,Chamarajanagar,1.0,Good,47,PM10
2021-11-05,Chamarajanagar,1.0,Good,44,PM10
2021-11-06,Chamarajanagar,1.0,Satisfactory,53,PM10
2021-11-07,Chamarajanagar,1.0,Good,40,PM10
2021-11-08,Chamarajanagar,1.0,Satisfactory,56,PM10
2021-11-09,Chamarajanagar,1.0,Satisfactory,60,PM10
2021-11-10,Chamarajanagar,1.0,Satisfactory,54,PM10
2021-11-11,Chamarajanagar,1.0,Satisfactory,67,PM2.5
2021-11-12,Chamarajanagar,1.0,Satisfactory,52,PM10
2021-11-13,Chamarajanagar,1.0,Good,49,PM2.5
2021-11-14,Chamarajanagar,1.0,Good,45,PM10
2021-11-15,Chamarajanagar,1.0,Good,46,PM10
2021-11-16,Chamarajanagar,1.0,Good,44,PM10
2021-11-17,Chamarajanagar,1.0,Good,43,PM10
2021-11-18,Chamarajanagar,1.0,Good,44,PM10
2021-11-19,Chamarajanagar,1.0,Good,40,PM10
2021-11-20,Chamarajanagar,1.0,Good,33,PM10
2021-11-21,Chamarajanagar,1.0,Good,35,PM2.5
2021-11-22,Chamarajanagar,1.0,Good,35,PM10
2021-11-23,Chamarajanagar,1.0,Good,37,PM10
2021-11-24,Chamarajanagar,1.0,Good,32,PM10
2021-11-25,Chamarajanagar,1.0,Good,35,PM10
2021-11-26,Chamarajanagar,1.0,Good,37,PM10
2021-11-27,Chamarajanagar,1.0,Good,34,PM10
2021-11-28,Chamarajanagar,1.0,Good,34,PM10
2021-11-29,Chamarajanagar,1.0,Good,36,PM10
2021-11-30,Chamarajanagar,1.0,Good,31,PM10
2021-12-01,Chamarajanagar,1.0,Good,27,PM10
2021-12-02,Chamarajanagar,1.0,Good,34,PM2.5
2021-12-03,Chamarajanagar,1.0,Good,32,PM10
2021-12-04,Chamarajanagar,1.0,Good,34,PM10
2021-12-05,Chamarajanagar,1.0,Good,38,PM10
2021-12-06,Chamarajanagar,1.0,Good,33,PM10
2021-12-07,Chamarajanagar,1.0,Good,33,PM10
2021-12-08,Chamarajanagar,1.0,Good,46,PM2.5
2021-12-09,Chamarajanagar,1.0,Good,36,PM10
2021-12-10,Chamarajanagar,1.0,Good,35,PM10
2021-12-11,Chamarajanagar,1.0,Good,36,PM10
2021-12-12,Chamarajanagar,1.0,Good,38,PM10
2021-12-13,Chamarajanagar,1.0,Good,35,PM10
2021-12-14,Chamarajanagar,1.0,Good,32,PM10
2021-12-15,Chamarajanagar,1.0,Satisfactory,93,O3
2021-12-16,Chamarajanagar,1.0,Moderate,106,O3
2021-12-17,Chamarajanagar,1.0,Moderate,155,O3
2021-12-18,Chamarajanagar,1.0,Good,39,PM10
2021-12-19,Chamarajanagar,1.0,Good,45,PM2.5
2021-12-20,Chamarajanagar,1.0,Good,39,PM10
2021-12-21,Chamarajanagar,1.0,Good,44,PM2.5
2021-12-23,Chamarajanagar,1.0,Good,43,PM10
2021-12-24,Chamarajanagar,1.0,Good,44,PM2.5
2021-12-25,Chamarajanagar,1.0,Satisfactory,56,PM2.5
2021-12-26,Chamarajanagar,1.0,Satisfactory,55,PM2.5
2021-12-27,Chamarajanagar,1.0,Good,48,PM2.5
2021-12-28,Chamarajanagar,1.0,Good,31,PM10
2021-12-29,Chamarajanagar,1.0,Good,36,PM10
2021-12-30,Chamarajanagar,1.0,Good,31,PM10
2021-12-31,Chamarajanagar,1.0,Good,39,PM10
2022-01-01,Chamarajanagar,1.0,Good,31,O3
2022-01-02,Chamarajanagar,1.0,Good,28,PM10
2022-01-03,Chamarajanagar,1.0,Good,31,PM10
2022-01-04,Chamarajanagar,1.0,Good,39,O3
2022-01-05,Chamarajanagar,1.0,Good,33,PM10
2022-01-06,Chamarajanagar,1.0,Good,32,PM10
2022-01-07,Chamarajanagar,1.0,Good,34,PM10
2022-01-08,Chamarajanagar,1.0,Good,29,PM10
2022-01-09,Chamarajanagar,1.0,Good,32,PM10
2022-01-10,Chamarajanagar,1.0,Good,35,PM10
2022-01-11,Chamarajanagar,1.0,Good,32,NO2
2022-01-12,Chamarajanagar,1.0,Good,36,PM10
2022-01-13,Chamarajanagar,1.0,Good,32,NO2
2022-01-14,Chamarajanagar,1.0,Good,31,NO2
2022-01-15,Chamarajanagar,1.0,Good,26,NO2
2022-01-16,Chamarajanagar,1.0,Good,34,NO2
2022-01-17,Chamarajanagar,1.0,Good,43,NO2
2022-01-18,Chamarajanagar,1.0,Good,31,O3
2022-01-19,Chamarajanagar,1.0,Good,32,PM10
2022-01-20,Chamarajanagar,1.0,Good,32,PM10
2022-01-21,Chamarajanagar,1.0,Good,33,PM10
2022-01-22,Chamarajanagar,1.0,Good,30,PM10
2022-01-23,Chamarajanagar,1.0,Good,29,PM10
2022-01-24,Chamarajanagar,1.0,Good,32,PM10
2022-01-25,Chamarajanagar,1.0,Good,33,PM10
2022-01-26,Chamarajanagar,1.0,Good,30,PM10
2022-01-27,Chamarajanagar,1.0,Good,30,PM10
2022-01-28,Chamarajanagar,1.0,Good,33,PM10
2022-01-29,Chamarajanagar,1.0,Good,34,PM10
2022-01-30,Chamarajanagar,1.0,Good,32,PM10
2022-01-31,Chamarajanagar,1.0,Good,30,PM10
2022-02-02,Chamarajanagar,1.0,Good,32,PM10
2022-02-03,Chamarajanagar,1.0,Good,31,PM10
2022-02-04,Chamarajanagar,1.0,Good,40,CO
2022-02-05,Chamarajanagar,1.0,Good,37,PM10
2022-02-06,Chamarajanagar,1.0,Good,34,PM10
2022-02-07,Chamarajanagar,1.0,Good,32,PM10
2022-02-08,Chamarajanagar,1.0,Good,37,PM10
2022-02-09,Chamarajanagar,1.0,Good,34,PM10
2022-02-10,Chamarajanagar,1.0,Good,34,PM10
2022-02-11,Chamarajanagar,1.0,Good,34,PM10
2022-02-12,Chamarajanagar,1.0,Good,32,PM10
2022-02-13,Chamarajanagar,1.0,Good,35,PM10
2022-02-14,Chamarajanagar,1.0,Good,38,PM10
2022-02-15,Chamarajanagar,1.0,Good,35,PM10
2022-02-16,Chamarajanagar,1.0,Good,34,PM10
2022-02-17,Chamarajanagar,1.0,Good,33,PM10
2022-02-18,Chamarajanagar,1.0,Good,37,PM10
2022-02-19,Chamarajanagar,1.0,Good,34,PM10
2022-02-20,Chamarajanagar,1.0,Good,33,PM10
2022-02-21,Chamarajanagar,1.0,Good,37,PM10
2022-02-22,Chamarajanagar,1.0,Good,41,O3
2022-02-23,Chamarajanagar,1.0,Good,36,PM10
2022-02-25,Chamarajanagar,1.0,Good,45,PM10
2022-02-26,Chamarajanagar,1.0,Good,46,PM10
2022-02-27,Chamarajanagar,1.0,Good,46,PM10
2022-02-28,Chamarajanagar,1.0,Satisfactory,52,CO
2022-03-01,Chamarajanagar,1.0,Good,44,PM10
2022-03-02,Chamarajanagar,1.0,Good,47,PM10
2022-03-03,Chamarajanagar,1.0,Good,43,PM10
2022-03-04,Chamarajanagar,1.0,Good,45,PM10
2022-03-06,Chamarajanagar,1.0,Good,40,PM10
2022-03-07,Chamarajanagar,1.0,Good,46,PM10
2022-03-08,Chamarajanagar,1.0,Good,44,PM10
2022-03-09,Chamarajanagar,1.0,Good,45,PM10
2022-03-10,Chamarajanagar,1.0,Good,46,PM10
2022-03-11,Chamarajanagar,1.0,Good,45,PM10
2022-03-12,Chamarajanagar,1.0,Good,42,PM10
2022-03-13,Chamarajanagar,1.0,Good,42,PM10
2022-03-14,Chamarajanagar,1.0,Good,48,PM10
2022-03-15,Chamarajanagar,1.0,Good,44,PM10
2022-03-16,Chamarajanagar,1.0,Good,48,PM10
2022-03-17,Chamarajanagar,1.0,Good,47,PM10
2022-03-18,Chamarajanagar,1.0,Good,46,PM10
2022-03-19,Chamarajanagar,1.0,Good,46,PM10
2022-03-20,Chamarajanagar,1.0,Good,45,PM10
2022-03-21,Chamarajanagar,1.0,Good,48,PM10
2022-03-22,Chamarajanagar,1.0,Good,45,PM10
2022-03-23,Chamarajanagar,1.0,Good,46,PM10
2022-03-24,Chamarajanagar,1.0,Good,47,PM10
2022-03-25,Chamarajanagar,1.0,Good,47,PM10
2022-03-26,Chamarajanagar,1.0,Good,45,PM10
2022-03-27,Chamarajanagar,1.0,Good,38,PM10
2022-03-28,Chamarajanagar,1.0,Good,46,PM10
2022-03-29,Chamarajanagar,1.0,Good,48,PM10
2022-03-30,Chamarajanagar,1.0,Good,47,PM10
2022-03-31,Chamarajanagar,1.0,Good,47,PM10
2022-04-04,Chamarajanagar,1.0,Good,48,PM10
2022-04-05,Chamarajanagar,1.0,Satisfactory,59,CO
2022-04-06,Chamarajanagar,1.0,Good,47,PM10
2022-04-07,Chamarajanagar,1.0,Good,46,PM10
2022-04-08,Chamarajanagar,1.0,Good,49,PM10
2022-04-09,Chamarajanagar,1.0,Good,45,PM10
2022-04-10,Chamarajanagar,1.0,Good,45,PM10
2022-04-11,Chamarajanagar,1.0,Good,50,PM10
2022-04-12,Chamarajanagar,1.0,Good,43,PM10
2022-04-14,Chamarajanagar,1.0,Good,48,PM10
2022-04-15,Chamarajanagar,1.0,Good,45,PM10
2022-04-16,Chamarajanagar,1.0,Good,44,PM10
2022-04-17,Chamarajanagar,1.0,Good,45,PM10
2022-04-18,Chamarajanagar,1.0,Good,43,PM10
2022-04-19,Chamarajanagar,1.0,Good,38,PM10
2022-04-20,Chamarajanagar,1.0,Good,43,PM10
2022-04-21,Chamarajanagar,1.0,Good,43,PM10
2022-04-22,Chamarajanagar,1.0,Good,44,PM10
2022-04-23,Chamarajanagar,1.0,Good,41,PM10
2022-04-24,Chamarajanagar,1.0,Good,42,PM10
2022-04-25,Chamarajanagar,1.0,Good,40,PM10
2022-04-26,Chamarajanagar,1.0,Good,42,PM10
2022-04-27,Chamarajanagar,1.0,Good,44,PM10
2022-04-28,Chamarajanagar,1.0,Good,44,PM10
2022-04-29,Chamarajanagar,1.0,Good,47,PM10
2022-04-30,Chamarajanagar,1.0,Good,43,PM10
2022-05-02,Chamarajanagar,1.0,Good,42,PM10
2022-05-03,Chamarajanagar,1.0,Good,45,PM10
2022-05-04,Chamarajanagar,1.0,Good,44,PM10
2022-05-05,Chamarajanagar,1.0,Good,40,PM10
2022-05-06,Chamarajanagar,1.0,Good,40,PM10
2022-05-07,Chamarajanagar,1.0,Good,42,PM10
2022-05-08,Chamarajanagar,1.0,Good,42,PM10
2022-05-09,Chamarajanagar,1.0,Good,45,PM10
2022-05-10,Chamarajanagar,1.0,Good,43,PM10
2022-05-11,Chamarajanagar,1.0,Good,46,PM10
2022-05-12,Chamarajanagar,1.0,Good,43,PM10
2022-05-13,Chamarajanagar,1.0,Good,35,PM10
2022-05-14,Chamarajanagar,1.0,Good,37,PM10
2022-05-15,Chamarajanagar,1.0,Good,39,PM10
2022-05-17,Chamarajanagar,1.0,Good,40,PM10
2022-05-18,Chamarajanagar,1.0,Good,40,PM10
2022-05-19,Chamarajanagar,1.0,Good,34,PM10
2022-05-20,Chamarajanagar,1.0,Good,41,PM10
2022-05-21,Chamarajanagar,1.0,Good,44,PM10
2022-05-22,Chamarajanagar,1.0,Good,40,PM10
2022-05-23,Chamarajanagar,1.0,Good,37,PM10
2022-05-24,Chamarajanagar,1.0,Good,44,PM10
2022-05-25,Chamarajanagar,1.0,Good,38,PM10
2022-05-26,Chamarajanagar,1.0,Good,44,PM10
2022-05-28,Chamarajanagar,1.0,Good,42,PM10
2022-05-29,Chamarajanagar,1.0,Good,42,PM10
2022-05-30,Chamarajanagar,1.0,Good,37,PM10
2022-05-31,Chamarajanagar,1.0,Good,40,PM10
2022-06-01,Chamarajanagar,1.0,Good,43,PM10
2022-06-02,Chamarajanagar,1.0,Good,41,PM10
2022-06-03,Chamarajanagar,1.0,Good,42,PM10
2022-06-04,Chamarajanagar,1.0,Good,44,PM10
2022-06-05,Chamarajanagar,1.0,Good,41,PM10
2022-06-06,Chamarajanagar,1.0,Good,41,PM10
2022-06-07,Chamarajanagar,1.0,Good,43,PM10
2022-06-08,Chamarajanagar,1.0,Good,38,PM10
2022-06-09,Chamarajanagar,1.0,Good,39,PM10
2022-06-10,Chamarajanagar,1.0,Good,37,PM10
2022-06-14,Chamarajanagar,1.0,Good,33,PM10
2022-06-15,Chamarajanagar,1.0,Good,36,PM10
2022-06-16,Chamarajanagar,1.0,Good,38,PM10
2022-06-18,Chamarajanagar,1.0,Good,37,PM10
2022-06-19,Chamarajanagar,1.0,Good,35,PM10
2022-06-20,Chamarajanagar,1.0,Good,39,PM10
2022-06-21,Chamarajanagar,1.0,Good,40,PM10
2022-06-22,Chamarajanagar,1.0,Good,38,PM10
2022-06-23,Chamarajanagar,1.0,Good,46,PM10
2022-06-24,Chamarajanagar,1.0,Good,36,PM10
2022-06-25,Chamarajanagar,1.0,Good,39,PM10
2022-06-26,Chamarajanagar,1.0,Good,38,PM10
2022-06-27,Chamarajanagar,1.0,Good,38,PM10
2022-06-28,Chamarajanagar,1.0,Good,40,PM10
2022-06-29,Chamarajanagar,1.0,Good,41,PM10
2022-06-30,Chamarajanagar,1.0,Good,43,PM10
2022-07-01,Chamarajanagar,1.0,Good,39,PM10
2022-07-02,Chamarajanagar,1.0,Good,43,PM10
2022-07-03,Chamarajanagar,1.0,Good,40,PM10
2022-07-04,Chamarajanagar,1.0,Good,39,PM10
2022-07-05,Chamarajanagar,1.0,Good,39,PM10
2022-07-06,Chamarajanagar,1.0,Good,40,PM10
2022-07-07,Chamarajanagar,1.0,Good,34,PM10
2022-07-08,Chamarajanagar,1.0,Good,34,PM10
2022-07-09,Chamarajanagar,1.0,Good,38,PM10
2022-07-10,Chamarajanagar,1.0,Good,33,PM10
2022-07-11,Chamarajanagar,1.0,Good,33,PM10
2022-07-16,Chamarajanagar,1.0,Good,42,PM10
2022-07-17,Chamarajanagar,1.0,Good,41,PM10
2022-07-18,Chamarajanagar,1.0,Good,35,PM10
2022-07-19,Chamarajanagar,1.0,Good,35,PM10
2022-07-20,Chamarajanagar,1.0,Good,34,PM10
2022-07-21,Chamarajanagar,1.0,Good,35,PM10
2022-07-22,Chamarajanagar,1.0,Good,36,PM10
2022-07-23,Chamarajanagar,1.0,Good,37,PM10
2022-07-24,Chamarajanagar,1.0,Good,35,PM10
2022-07-25,Chamarajanagar,1.0,Good,35,PM10
2022-07-26,Chamarajanagar,1.0,Good,39,PM10
2022-07-27,Chamarajanagar,1.0,Good,41,PM10
2022-07-28,Chamarajanagar,1.0,Good,37,PM10
2022-07-29,Chamarajanagar,1.0,Good,38,PM10
2022-07-30,Chamarajanagar,1.0,Good,40,PM10
2022-07-31,Chamarajanagar,1.0,Good,35,PM10
2022-08-01,Chamarajanagar,1.0,Good,38,PM10
2022-08-02,Chamarajanagar,1.0,Good,40,PM10
2022-08-03,Chamarajanagar,1.0,Good,35,PM10
2022-08-04,Chamarajanagar,1.0,Good,37,PM10
2022-08-05,Chamarajanagar,1.0,Good,33,PM10
2022-08-06,Chamarajanagar,1.0,Good,35,PM10
2022-08-07,Chamarajanagar,1.0,Good,40,PM10
2022-08-08,Chamarajanagar,1.0,Good,39,PM10
2022-08-09,Chamarajanagar,1.0,Good,41,PM10
2022-08-10,Chamarajanagar,1.0,Good,38,PM10
2022-08-11,Chamarajanagar,1.0,Good,39,PM10
2022-08-14,Chamarajanagar,1.0,Good,39,PM10
2022-08-15,Chamarajanagar,1.0,Good,41,PM10
2022-08-16,Chamarajanagar,1.0,Good,37,PM10
2022-08-19,Chamarajanagar,1.0,Good,40,PM10
2022-08-20,Chamarajanagar,1.0,Good,35,PM10
2022-08-21,Chamarajanagar,1.0,Good,38,PM10
2022-08-22,Chamarajanagar,1.0,Good,35,PM10
2022-08-23,Chamarajanagar,1.0,Good,38,PM10
2022-08-24,Chamarajanagar,1.0,Good,37,PM10
2022-08-25,Chamarajanagar,1.0,Good,37,PM10
2022-08-26,Chamarajanagar,1.0,Good,37,PM10